Waarnemingen

Advertentie
Mijn weer
Santander/Parayas, Spanje (8021): temperatuur & dauwpunt: 09.11.2018 20:00:00 - 15.11.2018 20:00:00 (CET)Santander/Parayas, Spanje (8021): windsnelheid: 09.11.2018 20:00:00 - 15.11.2018 20:00:00 (CET)Santander/Parayas, Spanje (8021): windrichting: 09.11.2018 20:00:00 - 15.11.2018 20:00:00 (CET)Santander/Parayas, Spanje (8021): luchtdruk: 09.11.2018 20:00:00 - 15.11.2018 20:00:00 (CET)Santander/Parayas, Spanje (8021): zicht: 09.11.2018 20:00:00 - 15.11.2018 20:00:00 (CET)
Datum & Tijd tt [°C] td [°C] ff [km/u] ff [kn] dd ppp [hPa] vv [km]
15.11.2018 20:00:00 13,5 11,4 4 2 W 1018,8 -
15.11.2018 19:00:00 14,1 11,2 4 2 W 1018,5 30
15.11.2018 18:00:00 16,5 12,1 9 5 WZW 1017,9 -
15.11.2018 17:00:00 18,6 12,5 11 6 WNW 1017,4 -
15.11.2018 16:00:00 20,0 11,7 11 6 W 1017,0 35
15.11.2018 15:00:00 21,1 11,3 16 9 WNW 1016,8 -
15.11.2018 14:00:00 23,9 11,7 13 7 ZW 1016,6 -
15.11.2018 13:00:00 23,0 11,8 18 10 ZZW 1016,6 35
15.11.2018 12:00:00 21,9 11,7 22 12 ZZW 1016,9 -
15.11.2018 11:00:00 20,6 10,9 28 15 Z 1016,7 -
15.11.2018 10:00:00 19,9 10,8 26 14 ZZW 1016,4 35
15.11.2018 09:00:00 18,8 10,6 26 14 ZZW 1016,1 -
15.11.2018 08:00:00 17,8 10,7 24 13 ZZW 1015,5 -
15.11.2018 07:00:00 18,2 10,8 24 13 ZZW 1015,5 25
15.11.2018 06:00:00 17,9 10,8 16 9 ZZW 1015,4 -
15.11.2018 05:00:00 16,9 10,7 13 7 Z 1015,4 -
15.11.2018 04:00:00 17,6 10,9 8 4 ZZO 1015,6 -
15.11.2018 03:00:00 17,4 11,1 15 8 ZZO 1015,7 -
15.11.2018 02:00:00 17,9 11,2 15 8 Z 1016,1 -
15.11.2018 01:00:00 17,7 11,5 11 6 ZZW 1016,4 -
15.11.2018 00:00:00 18,4 11,7 15 8 Z 1016,5 -
14.11.2018 23:00:00 18,1 11,9 13 7 ZZO 1016,9 -
14.11.2018 22:00:00 18,0 12,2 16 9 ZZO 1017,1 15
14.11.2018 21:00:00 15,6 11,6 4 2 OZO 1017,3 -
14.11.2018 20:00:00 14,8 12,8 9 5 Z 1017,5 -
14.11.2018 19:00:00 14,4 12,4 4 2 O 1017,8 15
14.11.2018 18:00:00 15,6 12,5 4 2 WNW 1017,5 -
14.11.2018 17:00:00 18,4 13,6 8 4 WNW 1017,6 -
14.11.2018 16:00:00 23,2 11,0 15 8 Z 1017,3 35
14.11.2018 15:00:00 22,9 11,4 16 9 ZZW 1017,7 -
14.11.2018 14:00:00 22,6 11,3 16 9 ZO 1018,2 -
14.11.2018 13:00:00 21,8 11,6 21 11 ZO 1018,8 30
14.11.2018 12:00:00 17,3 14,0 4 2 NNO 1020,0 -
14.11.2018 11:00:00 14,2 13,4 5 3 ONO 1020,6 -
14.11.2018 10:00:00 11,2 11,2 4 2 O 1021,2 25
14.11.2018 09:00:00 7,5 7,5 2 1 ZZO 1021,4 -
14.11.2018 08:00:00 6,4 6,4 2 1 ZW 1021,4 -
14.11.2018 07:00:00 7,1 7,1 4 2 N 1021,2 -
14.11.2018 06:00:00 5,9 5,9 0 0 N 1021,5 -
14.11.2018 05:00:00 6,9 6,9 4 2 ZO 1021,8 -
14.11.2018 04:00:00 7,4 7,4 5 3 W 1022,2 -
14.11.2018 03:00:00 7,2 7,2 0 0 N 1022,6 -
14.11.2018 02:00:00 7,9 7,9 0 0 N 1022,8 -
14.11.2018 01:00:00 7,7 7,7 0 0 N 1023,4 -
14.11.2018 00:00:00 9,0 9,0 2 1 Z 1023,6 -
13.11.2018 23:00:00 8,7 8,7 0 0 N 1024,0 -
13.11.2018 22:00:00 10,5 10,5 4 2 ZO 1024,1 12
13.11.2018 21:00:00 11,1 11,1 0 0 N 1024,7 -
13.11.2018 20:00:00 12,2 11,5 4 2 ZO 1025,2 -
13.11.2018 19:00:00 13,7 12,6 11 6 ONO 1025,1 20
13.11.2018 18:00:00 14,5 12,5 16 9 O 1024,9 -
13.11.2018 17:00:00 15,9 12,6 22 12 O 1024,9 -
13.11.2018 16:00:00 16,4 12,9 22 12 ONO 1025,1 3,0
13.11.2018 15:00:00 16,6 12,9 26 14 ONO 1025,3 -
13.11.2018 14:00:00 16,7 13,2 22 12 ONO 1025,8 -
13.11.2018 13:00:00 16,2 13,1 24 13 ONO 1026,3 30
13.11.2018 12:00:00 16,5 13,2 11 6 ONO 1026,9 -
13.11.2018 11:00:00 14,8 13,8 8 4 O 1027,3 -
13.11.2018 10:00:00 12,4 12,4 4 2 OZO 1027,6 20
13.11.2018 09:00:00 11,3 11,3 2 1 ZZO 1027,6 -
13.11.2018 08:00:00 10,8 10,8 0 0 N 1026,9 -
13.11.2018 07:00:00 10,3 10,3 0 0 N 1026,4 10
13.11.2018 06:00:00 9,9 9,9 2 1 ZZW 1026,0 -
13.11.2018 05:00:00 9,2 9,2 0 0 N 1025,5 -
13.11.2018 04:00:00 8,9 8,9 0 0 N 1025,2 -
13.11.2018 03:00:00 10,7 10,7 2 1 NO 1025,2 -
13.11.2018 02:00:00 11,2 10,9 2 1 ZZW 1024,6 -
13.11.2018 01:00:00 12,7 12,1 5 3 WZW 1024,5 -
13.11.2018 00:00:00 12,8 12,0 4 2 W 1024,1 -
12.11.2018 23:00:00 12,6 11,8 8 4 ZW 1023,5 -
12.11.2018 22:00:00 12,9 12,1 8 4 ZW 1022,7 20
12.11.2018 21:00:00 13,2 12,3 0 0 N 1022,0 -
12.11.2018 20:00:00 13,7 11,9 5 3 ZW 1021,4 -
12.11.2018 19:00:00 14,0 11,5 2 1 W 1020,4 30
12.11.2018 18:00:00 14,5 11,1 4 2 N 1019,2 -
12.11.2018 17:00:00 14,7 10,9 8 4 N 1018,3 -
12.11.2018 16:00:00 15,2 11,0 8 4 ONO 1017,8 35
12.11.2018 15:00:00 16,0 10,0 5 3 ONO 1017,3 -
12.11.2018 14:00:00 15,8 10,8 0 0 N 1017,2 -
12.11.2018 13:00:00 15,4 10,6 2 1 ZZO 1017,4 35
12.11.2018 12:00:00 15,7 10,9 5 3 ZW 1017,4 -
12.11.2018 11:00:00 15,0 11,9 5 3 Z 1016,9 -
12.11.2018 10:00:00 12,9 12,4 4 2 ZZW 1016,5 25
12.11.2018 09:00:00 11,8 11,8 5 3 ZZW 1015,7 -
12.11.2018 08:00:00 11,5 11,5 4 2 Z 1015,2 -
12.11.2018 07:00:00 11,4 11,4 9 5 Z 1014,4 20
12.11.2018 06:00:00 11,4 11,4 9 5 Z 1013,8 -
12.11.2018 05:00:00 11,5 11,5 4 2 ZZO 1012,7 -
12.11.2018 04:00:00 11,5 11,5 8 4 NW 1012,4 -
12.11.2018 03:00:00 11,9 11,9 9 5 NW 1011,3 -
12.11.2018 02:00:00 12,1 12,1 13 7 N 1010,2 -
12.11.2018 01:00:00 13,1 13,1 5 3 O 1010,1 -
12.11.2018 00:00:00 13,1 13,1 5 3 ONO 1009,5 -
11.11.2018 23:00:00 12,8 12,8 4 2 OZO 1009,7 -
11.11.2018 22:00:00 13,0 13,0 0 0 N 1009,6 4,9
11.11.2018 21:00:00 13,0 13,0 4 2 ZO 1009,6 -
11.11.2018 20:00:00 13,2 13,2 8 4 O 1009,6 -
11.11.2018 19:00:00 13,4 13,4 5 3 O 1009,7 3,0
11.11.2018 18:00:00 13,5 13,5 8 4 O 1009,1 -
11.11.2018 17:00:00 13,7 12,9 8 4 NNO 1008,9 -
11.11.2018 16:00:00 14,3 13,5 5 3 WNW 1009,4 3,2
11.11.2018 15:00:00 15,1 13,6 9 5 NW 1009,5 -
11.11.2018 14:00:00 16,5 13,5 16 9 WNW 1009,2 -
11.11.2018 13:00:00 20,6 11,4 26 14 WZW 1007,2 25
11.11.2018 12:00:00 20,4 10,4 34 18 ZZW 1006,9 -
11.11.2018 11:00:00 19,7 10,5 41 22 ZZW 1006,4 -
11.11.2018 10:00:00 19,2 10,5 29 16 ZZW 1006,5 20
11.11.2018 09:00:00 18,8 10,1 29 16 ZZW 1007,0 -
11.11.2018 08:00:00 18,6 9,5 29 16 ZZW 1006,0 -
11.11.2018 07:00:00 18,3 8,5 37 20 ZZW 1005,2 -
11.11.2018 06:00:00 18,3 9,1 34 18 ZZW 1005,0 -
11.11.2018 05:00:00 17,7 9,6 29 16 Z 1005,1 -
11.11.2018 04:00:00 17,6 8,8 29 16 Z 1005,8 -
11.11.2018 03:00:00 17,4 9,0 26 14 Z 1006,2 -
11.11.2018 02:00:00 17,6 8,4 22 12 ZZW 1007,3 -
11.11.2018 01:00:00 17,0 8,3 21 11 ZZW 1007,4 -
11.11.2018 00:00:00 16,4 8,6 22 12 Z 1007,1 -
10.11.2018 23:00:00 14,7 8,3 15 8 ZZW 1007,5 -
10.11.2018 22:00:00 11,0 9,7 5 3 O 1007,3 30
10.11.2018 21:00:00 11,8 9,9 0 0 N 1007,7 -
10.11.2018 20:00:00 12,9 10,8 0 0 N 1007,7 -
10.11.2018 19:00:00 13,5 10,8 9 5 OZO 1007,2 20
10.11.2018 18:00:00 14,6 11,2 11 6 OZO 1006,7 -
10.11.2018 17:00:00 17,0 10,6 0 0 N 1006,6 -
10.11.2018 16:00:00 17,7 9,7 13 7 NW 1006,0 25
10.11.2018 15:00:00 18,0 11,7 9 5 NO 1004,8 -
10.11.2018 14:00:00 17,4 14,2 9 5 O 1005,0 -
10.11.2018 13:00:00 17,7 12,8 8 4 O 1006,0 25
10.11.2018 12:00:00 17,7 14,2 9 5 NO 1006,0 -
10.11.2018 11:00:00 16,0 14,5 11 6 OZO 1006,7 -
10.11.2018 10:00:00 14,1 13,9 4 2 NW 1007,6 12
10.11.2018 09:00:00 13,8 13,3 4 2 W 1006,6 -
10.11.2018 08:00:00 13,7 13,1 9 5 N 1005,4 -
10.11.2018 07:00:00 13,9 12,8 8 4 O 1005,2 15
10.11.2018 06:00:00 14,3 13,0 4 2 N 1005,6 -
10.11.2018 05:00:00 14,3 12,8 5 3 NNW 1005,6 -
10.11.2018 04:00:00 14,9 13,3 8 4 W 1006,7 -
10.11.2018 03:00:00 18,2 10,7 26 14 ZZW 1005,7 -
10.11.2018 02:00:00 18,1 10,2 35 19 ZZW 1005,2 -
10.11.2018 01:00:00 17,6 9,7 35 19 Z 1005,6 -
10.11.2018 00:00:00 17,2 9,4 42 23 Z 1005,5 -
09.11.2018 23:00:00 16,4 9,3 37 20 Z 1006,4 -
09.11.2018 22:00:00 16,2 9,1 42 23 Z 1007,2 35
09.11.2018 21:00:00 16,0 9,0 39 21 Z 1007,8 -
09.11.2018 20:00:00 15,8 8,3 44 24 Z 1008,6 -

tt = temperatuur
td = dauwpunt
ff = windsnelheid
dd = windrichting
ppp = luchtdruk
vv = zicht

Weerstations in de omgeving